Change the Weather History Date:

Sunday, August 18, 2013

  Actual Average (KAPN) Record (KAPN)
Temperature  
Mean Temperature 70 °F 65 °F  
Max Temperature 82 °F 77 °F 100 °F (1947)
Min Temperature 59 °F 54 °F 34 °F (1962)
Degree Days  
Heating Degree Days 0 2  
Month to date heating degree days 32  
Since 1 June heating degree days 219  
Since 1 July heating degree days 76  
Cooling Degree Days 6 2  
Month to date cooling degree days 54  
Year to date cooling degree days 239  
Since 1 June cooling degree days 226  
Growing Degree Days 20 (Base 50)    
Moisture  
Dew Point 53 °F    
Average Humidity 61    
Maximum Humidity 88    
Minimum Humidity 32    
Precipitation  
Precipitation 0.00 in 0.10 in 1.10 in (1940)
Month to date precipitation 1.82  
Year to date precipitation 17.37  
Sea Level Pressure  
Sea Level Pressure 30.17 in    
Wind  
Wind Speed 7 mph (WSW)    
Max Wind Speed 10 mph    
Max Gust Speed 16 mph    
Visibility 10 miles    
Events      
T = Trace of Precipitation, MM = Missing Value Source: NWS Daily Summary

Daily Weather History Graph

Daily Weather History Graph

Search for Another Location

Airport or City:

Trip Planner

Search our weather history database for the weather conditions in past years. The results will help you decide how hot, cold, wet, or windy it might be!

Date:

Astronomy

Aug. 18, 2013 Rise Set
Actual Time 6:40 AM EDT 8:37 PM EDT
Civil Twilight 6:08 AM EDT 9:08 PM EDT
Nautical Twilight 5:28 AM EDT 9:47 PM EDT
Astronomical Twilight 4:45 AM EDT 10:30 PM EDT
Moon 6:45 PM EDT (8/18) 3:44 AM EDT (8/18)
Length of Visible Light 15h 00m
Length of Day
13h 57m
Waxing Gibbous, 92% of the Moon is Illuminated
Aug 18
Waxing Gibbous
Aug 20
Full
Aug 28
Last Quarter
Sep 5
New
Sep 12
First Quarter

Hourly Weather History & Observations

Time (EDT) Temp. Dew Point Humidity Pressure Visibility Wind Dir Wind Speed Gust Speed Precip Events Conditions
12:15 AM 63.7 °F 55.4 °F 74% 30.19 in 10.0 mi SSW 9.2 mph - N/A   Clear
12:35 AM 63.1 °F 55.4 °F 76% 30.19 in 10.0 mi SSW 8.1 mph - N/A   Clear
12:54 AM 63.1 °F 55.9 °F 77% 30.19 in 10.0 mi SW 8.1 mph - N/A   Clear
1:15 AM 62.1 °F 56.3 °F 81% 30.20 in 10.0 mi SW 5.8 mph - N/A   Clear
1:34 AM 61.3 °F 55.8 °F 82% 30.20 in 10.0 mi SW 4.6 mph - N/A   Clear
1:55 AM 61.0 °F 54.7 °F 80% 30.20 in 10.0 mi SW 4.6 mph - N/A   Clear
2:15 AM 60.4 °F 53.8 °F 79% 30.19 in 10.0 mi SW 4.6 mph - N/A   Clear
2:34 AM 60.8 °F 52.9 °F 75% 30.19 in 10.0 mi SW 5.8 mph - N/A   Clear
2:54 AM 60.4 °F 52.2 °F 74% 30.20 in 10.0 mi SW 5.8 mph - N/A   Clear
3:15 AM 60.3 °F 51.8 °F 74% 30.20 in 10.0 mi SW 5.8 mph - N/A   Clear
3:34 AM 60.4 °F 51.3 °F 72% 30.20 in 10.0 mi SW 6.9 mph - N/A   Clear
3:55 AM 60.1 °F 50.9 °F 72% 30.20 in 10.0 mi SW 5.8 mph - N/A   Clear
4:14 AM 60.3 °F 50.9 °F 71% 30.20 in 10.0 mi SW 5.8 mph - N/A   Clear
4:35 AM 60.1 °F 50.9 °F 72% 30.20 in 10.0 mi SW 5.8 mph - N/A   Clear
4:55 AM 60.1 °F 51.3 °F 73% 30.20 in 10.0 mi WSW 3.5 mph - N/A   Clear
5:14 AM 59.9 °F 50.9 °F 72% 30.20 in 10.0 mi WSW 3.5 mph - N/A   Clear
5:35 AM 59.9 °F 50.2 °F 70% 30.20 in 10.0 mi SW 5.8 mph - N/A   Clear
5:55 AM 60.3 °F 50.2 °F 69% 30.20 in 10.0 mi SW 6.9 mph - N/A   Clear
6:14 AM 59.5 °F 50.5 °F 72% 30.20 in 10.0 mi SW 6.9 mph - N/A   Clear
6:35 AM 59.2 °F 50.9 °F 74% 30.20 in 10.0 mi SW 8.1 mph - N/A   Clear
6:55 AM 59.0 °F 50.2 °F 73% 30.21 in 10.0 mi SW 5.8 mph - N/A   Clear
7:15 AM 59.2 °F 50.0 °F 72% 30.22 in 10.0 mi WSW 3.5 mph - N/A   Clear
7:34 AM 59.9 °F 50.0 °F 70% 30.22 in 10.0 mi WSW 6.9 mph - N/A   Clear
7:54 AM 63.1 °F 49.6 °F 61% 30.22 in 10.0 mi SW 6.9 mph - N/A   Clear
8:15 AM 65.8 °F 50.2 °F 57% 30.22 in 10.0 mi WSW 6.9 mph - N/A   Clear
8:34 AM 68.0 °F 51.1 °F 55% 30.22 in 10.0 mi SW 6.9 mph - N/A   Clear
8:55 AM 70.5 °F 52.0 °F 52% 30.23 in 10.0 mi WSW 6.9 mph - N/A   Clear
9:15 AM 72.5 °F 52.0 °F 48% 30.22 in 10.0 mi WSW 6.9 mph - N/A   Clear
9:34 AM 74.3 °F 52.3 °F 46% 30.23 in 10.0 mi West 5.8 mph - N/A   Clear
9:55 AM 75.4 °F 52.0 °F 44% 30.22 in 10.0 mi West 9.2 mph - N/A   Clear
10:15 AM 76.3 °F 52.2 °F 43% 30.22 in 10.0 mi West 8.1 mph 16.1 mph N/A   Clear
10:34 AM 77.9 °F 52.9 °F 42% 30.22 in 10.0 mi West 9.2 mph - N/A   Clear
10:55 AM 78.4 °F 52.3 °F 40% 30.22 in 10.0 mi West 8.1 mph - N/A   Clear
11:15 AM 79.2 °F 52.0 °F 39% 30.22 in 10.0 mi West 6.9 mph - N/A   Clear
11:34 AM 80.1 °F 52.3 °F 38% 30.21 in 10.0 mi WSW 8.1 mph - N/A   Clear
11:55 AM 80.6 °F 51.4 °F 36% 30.20 in 10.0 mi WNW 3.5 mph - N/A   Clear
12:14 PM 81.0 °F 52.0 °F 36% 30.19 in 10.0 mi West 6.9 mph - N/A   Clear
12:35 PM 81.7 °F 50.7 °F 34% 30.19 in 10.0 mi West 6.9 mph - N/A   Clear
12:55 PM 81.7 °F 50.2 °F 33% 30.18 in 10.0 mi West 6.9 mph - N/A   Clear
1:14 PM 81.9 °F 49.3 °F 32% 30.17 in 10.0 mi SW 9.2 mph - N/A   Clear
1:35 PM 82.2 °F 49.6 °F 32% 30.17 in 10.0 mi SW 6.9 mph - N/A   Clear
1:55 PM 82.4 °F 51.1 °F 34% 30.16 in 10.0 mi South 8.1 mph - N/A   Clear
2:14 PM 79.3 °F 54.7 °F 42% 30.16 in 10.0 mi NE 3.5 mph - N/A   Clear
2:35 PM 79.2 °F 53.1 °F 40% 30.16 in 10.0 mi NNE 6.9 mph - N/A   Clear
2:54 PM 78.6 °F 55.0 °F 44% 30.16 in 10.0 mi ENE 8.1 mph - N/A   Clear
3:14 PM 78.3 °F 54.9 °F 44% 30.15 in 10.0 mi ENE 8.1 mph - N/A   Clear
3:34 PM 79.0 °F 54.3 °F 42% 30.15 in 10.0 mi ENE 9.2 mph - N/A   Clear
3:54 PM 79.3 °F 53.1 °F 40% 30.15 in 10.0 mi ENE 9.2 mph - N/A   Clear
4:15 PM 79.0 °F 53.4 °F 41% 30.14 in 10.0 mi ENE 8.1 mph - N/A   Clear
4:34 PM 79.0 °F 52.7 °F 40% 30.14 in 10.0 mi ENE 8.1 mph - N/A   Clear
4:55 PM 77.5 °F 53.6 °F 43% 30.13 in 10.0 mi ENE 10.4 mph - N/A   Clear
5:15 PM 76.1 °F 53.8 °F 46% 30.13 in 10.0 mi ENE 9.2 mph - N/A   Clear
5:34 PM 76.3 °F 53.4 °F 45% 30.13 in 10.0 mi NE 9.2 mph - N/A   Clear
5:55 PM 74.3 °F 56.5 °F 54% 30.13 in 10.0 mi East 9.2 mph - N/A   Clear
6:14 PM 74.3 °F 57.2 °F 55% 30.13 in 10.0 mi NE 5.8 mph - N/A   Clear
6:35 PM 71.6 °F 58.8 °F 64% 30.13 in 10.0 mi NNE 4.6 mph - N/A   Clear
6:55 PM 71.1 °F 58.5 °F 64% 30.12 in 10.0 mi North 6.9 mph - N/A   Clear
7:14 PM 70.3 °F 58.3 °F 66% 30.12 in 10.0 mi North 5.8 mph - N/A   Clear
7:35 PM 69.4 °F 58.1 °F 67% 30.12 in 10.0 mi NNE 4.6 mph - N/A   Clear
7:55 PM 68.9 °F 57.7 °F 68% 30.11 in 10.0 mi NNE 5.8 mph - N/A   Clear
8:14 PM 68.0 °F 58.1 °F 71% 30.11 in 10.0 mi NE 4.6 mph - N/A   Clear
8:35 PM 67.5 °F 57.9 °F 71% 30.11 in 10.0 mi Calm Calm - N/A   Clear
8:54 PM 65.5 °F 57.4 °F 75% 30.11 in 10.0 mi Calm Calm - N/A   Clear
9:14 PM 61.5 °F 56.1 °F 82% 30.10 in 10.0 mi Calm Calm - N/A   Clear
9:35 PM 61.2 °F 56.1 °F 83% 30.10 in 10.0 mi Calm Calm - N/A   Clear
9:54 PM 59.5 °F 55.8 °F 87% 30.10 in 10.0 mi Calm Calm - N/A   Clear
10:14 PM 59.7 °F 56.1 °F 88% 30.10 in 10.0 mi WSW 3.5 mph - N/A   Clear
10:35 PM 59.2 °F 55.4 °F 87% 30.10 in 10.0 mi WSW 3.5 mph - N/A   Clear
10:54 PM 59.9 °F 55.9 °F 87% 30.10 in 10.0 mi WSW 4.6 mph - N/A   Clear
11:15 PM 60.1 °F 54.7 °F 82% 30.09 in 10.0 mi SW 4.6 mph - N/A   Clear
11:35 PM 61.0 °F 53.6 °F 77% 30.09 in 10.0 mi WSW 4.6 mph - N/A   Clear
11:54 PM 61.0 °F 53.2 °F 76% 30.10 in 10.0 mi WSW 4.6 mph - N/A   Clear